Weather History for Melbourne Airport, Victoria

Change the Weather History Date:

Monday, March 3, 2014

  Actual Average Record
Temperature  
Mean Temperature 66 °F -  
Max Temperature 79 °F 71 °F - ()
Min Temperature 53 °F 52 °F - ()
Cooling Degree Days 1    
Growing Degree Days 16 (Base 50)    
Moisture  
Dew Point 54 °F    
Average Humidity 66    
Maximum Humidity 88    
Minimum Humidity 31    
Precipitation  
Precipitation 0.00 in 0.05 in - ()
Sea Level Pressure  
Sea Level Pressure 30.21 in    
Wind  
Wind Speed 6 mph ()    
Max Wind Speed 14 mph    
Max Gust Speed -    
Visibility 7.9 miles    
Events      
T = Trace of Precipitation, MM = Missing Value Source: Averaged Metar Reports

Daily Weather History Graph

Daily Weather History Graph

Search for Another Location

Airport:

Trip Planner

Search our weather history database for the weather conditions in past years. The results will help you decide how hot, cold, wet, or windy it might be!

Date:

Astronomy

Mar. 03, 2014 Rise Set
Actual Time 7:06 AM EST 7:57 PM EST
Civil Twilight 6:40 AM EST 8:24 PM EST
Nautical Twilight 6:08 AM EST 8:56 PM EST
Astronomical Twilight 5:35 AM EST 9:28 PM EST
Moon 9:00 AM EST (3/3) 8:53 PM EST (3/3)
Length of Visible Light 13h 44m
Length of Day
12h 51m
Waxing Crescent, 4% of the Moon is Illuminated
Mar 3
Waxing Crescent
Mar 9
First Quarter
Mar 17
Full
Mar 24
Last Quarter
Mar 31
New

Hourly Weather History & Observations

Time (EST) Temp. Dew Point Humidity Pressure Visibility Wind Dir Wind Speed Gust Speed Precip Events Conditions
12:00 AM 57 °F 50 °F 70% 30.24 in 19 mi SSE 8.1 mph - -   Partly Cloudy
12:00 AM 57.2 °F 50.0 °F 77% 30.24 in 6.2 mi SSE 8.1 mph - N/A   Partly Cloudy
12:30 AM 55.4 °F 50.0 °F 82% 30.24 in 6.2 mi SSE 6.9 mph - N/A   Partly Cloudy
1:00 AM 55 °F 50 °F 79% 30.24 in - South 8.1 mph - -  
1:00 AM 55.4 °F 50.0 °F 82% 30.24 in 6.2 mi South 8.1 mph - N/A   Partly Cloudy
1:30 AM 53.6 °F 50.0 °F 88% 30.24 in 6.2 mi SSW 4.6 mph - N/A   Partly Cloudy
2:00 AM 54 °F 49 °F 78% 30.24 in - WSW 4.6 mph - -  
2:00 AM 53.6 °F 50.0 °F 88% 30.24 in 6.2 mi WSW 4.6 mph - N/A   Partly Cloudy
2:30 AM 53.6 °F 50.0 °F 88% 30.21 in 6.2 mi West 3.5 mph - N/A   Mostly Cloudy
3:00 AM 56 °F 51 °F 80% 30.23 in 16 mi WNW 3.5 mph - -   Haze
3:00 AM 55.4 °F 51.8 °F 88% 30.21 in 6.2 mi WNW 3.5 mph - N/A   Mostly Cloudy
3:30 AM 57.2 °F 51.8 °F 82% 30.21 in 6.2 mi NW 3.5 mph - N/A   Mostly Cloudy
4:00 AM 58 °F 52 °F 75% 30.23 in - WNW 4.6 mph - -  
4:00 AM 57.2 °F 51.8 °F 82% 30.21 in 6.2 mi WNW 4.6 mph - N/A   Overcast
4:30 AM 59.0 °F 51.8 °F 77% 30.21 in 6.2 mi West 4.6 mph - N/A   Mostly Cloudy
5:00 AM 59 °F 53 °F 73% 30.22 in - SW 4.6 mph - -  
5:00 AM 59.0 °F 51.8 °F 77% 30.21 in 6.2 mi SW 4.6 mph - N/A   Overcast
5:30 AM 59.0 °F 51.8 °F 77% 30.21 in 6.2 mi West 5.8 mph - N/A   Overcast
6:00 AM 59 °F 53 °F 73% 30.23 in 16 mi West 5.8 mph - -   Haze
6:00 AM 59.0 °F 53.6 °F 82% 30.21 in 6.2 mi West 5.8 mph - N/A   Overcast
6:30 AM 59.0 °F 53.6 °F 82% 30.24 in 6.2 mi WSW 1.2 mph - N/A   Overcast
7:00 AM 59 °F 53 °F 74% 30.25 in - West 3.5 mph - -  
7:00 AM 59.0 °F 53.6 °F 82% 30.24 in 6.2 mi West 3.5 mph - N/A   Overcast
7:30 AM 59.0 °F 53.6 °F 82% 30.24 in 6.2 mi West 4.6 mph - N/A   Overcast
8:00 AM 60 °F 53 °F 70% 30.27 in - SSW 4.6 mph - -  
8:00 AM 60.8 °F 53.6 °F 77% 30.27 in 6.2 mi SSW 4.6 mph - N/A   Overcast
8:30 AM 60.8 °F 53.6 °F 77% 30.27 in 6.2 mi West 5.8 mph - N/A   Overcast
9:00 AM 61 °F 53 °F 67% 30.28 in 16 mi North 3.5 mph - -   Haze
9:00 AM 60.8 °F 53.6 °F 77% 30.27 in 6.2 mi North 3.5 mph - N/A   Overcast
9:30 AM 62.6 °F 53.6 °F 72% 30.27 in 6.2 mi Calm Calm - N/A   Mostly Cloudy
10:00 AM 63 °F 54 °F 63% 30.28 in - North 4.6 mph - -  
10:00 AM 62.6 °F 53.6 °F 72% 30.27 in 6.2 mi North 4.6 mph - N/A   Partly Cloudy
10:30 AM 64.4 °F 53.6 °F 68% 30.27 in 6.2 mi WNW 5.8 mph - N/A   Partly Cloudy
11:00 AM 67 °F 54 °F 54% 30.27 in - NNE 3.5 mph - -  
11:00 AM 66.2 °F 53.6 °F 64% 30.27 in 6.2 mi NNE 3.5 mph - N/A   Partly Cloudy
11:30 AM 69.8 °F 53.6 °F 56% 30.24 in 6.2 mi West 3.5 mph - N/A   Partly Cloudy
12:00 PM 72 °F 54 °F 42% 30.25 in 12 mi SE 6.9 mph - -   Haze
12:00 PM 71.6 °F 53.6 °F 53% 30.24 in 6.2 mi SE 6.9 mph - N/A   Partly Cloudy
12:30 PM 75.2 °F 53.6 °F 47% 30.24 in - SE 6.9 mph - N/A   Clear
1:00 PM 77 °F 53 °F 33% 30.22 in - South 9.2 mph - -  
1:00 PM 77.0 °F 53.6 °F 44% 30.21 in - South 9.2 mph - N/A   Clear
1:30 PM 77.0 °F 53.6 °F 44% 30.18 in - SSE 13.8 mph - N/A   Clear
2:00 PM 79 °F 54 °F 31% 30.19 in - South 10.4 mph - -  
2:00 PM 78.8 °F 53.6 °F 42% 30.18 in - South 10.4 mph - N/A   Clear
2:30 PM 77.0 °F 53.6 °F 44% 30.18 in - South 12.7 mph - N/A   Clear
3:00 PM 78 °F 54 °F 33% 30.18 in 12 mi South 10.4 mph - -   Haze
3:00 PM 78.8 °F 53.6 °F 42% 30.18 in - South 10.4 mph - N/A   Clear
3:30 PM 78.8 °F 53.6 °F 42% 30.15 in - South 12.7 mph - N/A   Clear
4:00 PM 77 °F 55 °F 35% 30.16 in - South 12.7 mph - -  
4:00 PM 77.0 °F 55.4 °F 47% 30.15 in - South 12.7 mph - N/A   Clear
4:30 PM 78.8 °F 55.4 °F 44% 30.15 in - South 13.8 mph - N/A   Clear
5:00 PM 76 °F 56 °F 40% 30.16 in - South 12.7 mph - -  
5:00 PM 77.0 °F 57.2 °F 50% 30.15 in - South 12.7 mph - N/A   Clear
5:30 PM 75.2 °F 57.2 °F 53% 30.15 in - South 12.7 mph - N/A   Clear
6:00 PM 74 °F 57 °F 45% 30.16 in 12 mi South 12.7 mph - -   Haze
6:00 PM 73.4 °F 57.2 °F 57% 30.15 in - South 12.7 mph - N/A   Clear
6:30 PM 73.4 °F 57.2 °F 57% 30.15 in 6.2 mi South 12.7 mph - N/A   Partly Cloudy
7:00 PM 72 °F 58 °F 51% 30.17 in - South 12.7 mph - -  
7:00 PM 73.4 °F 57.2 °F 57% 30.15 in 6.2 mi South 12.7 mph - N/A   Partly Cloudy
7:30 PM 69.8 °F 59.0 °F 68% 30.18 in 6.2 mi SSW 10.4 mph - N/A   Partly Cloudy
8:00 PM 69 °F 59 °F 62% 30.19 in - SSW 9.2 mph - -  
8:00 PM 68.0 °F 59.0 °F 73% 30.18 in 6.2 mi SSW 9.2 mph - N/A   Partly Cloudy
8:30 PM 66.2 °F 59.0 °F 78% 30.18 in 6.2 mi SSW 8.1 mph - N/A   Partly Cloudy
9:00 PM 65 °F 58 °F 71% 30.21 in 12 mi SW 6.9 mph - -   Haze
9:00 PM 66.2 °F 57.2 °F 73% 30.21 in 6.2 mi SW 6.9 mph - N/A   Partly Cloudy
9:30 PM 64.4 °F 57.2 °F 77% 30.21 in - West 8.1 mph - N/A   Clear
10:00 PM 64 °F 59 °F 77% 30.22 in - West 8.1 mph - -  
10:00 PM 64.4 °F 59.0 °F 83% 30.21 in - West 8.1 mph - N/A   Clear
10:30 PM 62.6 °F 59.0 °F 88% 30.21 in - WSW 5.8 mph - N/A   Clear
11:00 PM 61 °F 58 °F 86% 30.22 in - West 8.1 mph - -  
11:00 PM 60.8 °F 57.2 °F 88% 30.21 in - West 8.1 mph - N/A   Clear
11:30 PM 60.8 °F 57.2 °F 88% 30.21 in - West 8.1 mph - N/A   Clear